Regional Weather Roundup
Issued by NWS

Home | Current Version | Previous Version | Graphics & Text | Print | Product List | Glossary On
Versions: 1 2 3 4 5 6 7 8 9 10 11 12 13 14 15 16 17 18 19 20 21 22 23 24 25 26 27 28 29 30 31 32 33 34 35 36 37 38 39 40 41 42 43 44 45 46 47 48 49
000
ASUS45 KBOU 250007
RWRCO

WEATHER ROUNDUP FOR COLORADO
NATIONAL WEATHER SERVICE DENVER/BOULDER CO
600 PM MDT THU JUL 24 2014

NOTE: "FAIR" INDICATES FEW OR NO CLOUDS BELOW 12000 FEET WITH NO
SIGNIFICANT WEATHER AND/OR OBSTRUCTIONS TO VISIBILITY.

COZ001>005-013-030-031-250100-
...NORTHWEST COLORADO...

CITY           SKY/WX    TMP DP  RH WIND       PRES   REMARKS
CRAIG          MOSUNNY   76  48  37 SW13      30.13F
HAYDEN         MOSUNNY   82  45  26 SW14      30.17F
MEEKER         PTSUNNY   84  43  23 W8        30.16F
MOUNT WERNER   NOT AVBL
STEAMBOAT SPGS MOSUNNY   80  51  36 CALM      30.20F
WALDEN         MOSUNNY   73  41  31 SW14G24   30.30S
$$

COZ006>008-011-250100-
...WEST CENTRAL VALLEYS...

CITY           SKY/WX    TMP DP  RH WIND       PRES   REMARKS
GRAND JUNCTION PTSUNNY   91  45  20 SE12      30.03F
MONTROSE       CLOUDY    73  56  54 S23G31    30.23F
EAGLE          MOSUNNY   81  52  36 SW18      30.22F
RIFLE          PTSUNNY   84  52  33 SE17      30.11F
DELTA          CLOUDY    83  55  37 SE23G36   30.14S
NUCLA          CLOUDY    79  52  38 E17G25    30.23S
$$

COZ017>023-064>068-250100-
...SOUTHWEST COLORADO...

CITY           SKY/WX    TMP DP  RH WIND       PRES   REMARKS
DURANGO        PTSUNNY   79  52  38 N9        30.22F
CORTEZ         PTSUNNY   87  51  28 S8        30.16F
PAGOSA SPRINGS PTSUNNY   80  43  26 NW8       30.31F
TELLURIDE      NOT AVBL
WOLF CREEK PAS NOT AVBL
$$

COZ009-010-012-014-032>034-037-058>063-250100-
...CENTRAL COLORADO...

CITY           SKY/WX    TMP DP  RH WIND       PRES   REMARKS
ASPEN          PTSUNNY   68  56  65 CALM      30.34F
BUENA VISTA    CLOUDY    73  44  34 NW23G30   30.30S
COPPER MTN     PTSUNNY   61  37  41 SW10G21   30.68S
BERTHOUD PASS  FAIR      54  39  58 W15G22    30.71S THUNDER
COTTONWOOD PAS PTSUNNY   72  37  28 SW6G18    30.47S
GUNNISON       CLOUDY    72  45  37 SW12G20   30.38R
KREMMLING      PTSUNNY   72  54  53 CALM      30.29F
LEADVILLE      PTSUNNY   61  44  53 NE8       30.49F
MONARCH PASS   CLOUDY    57  37  47 W23G31    30.78R
SALIDA         PTSUNNY  N/A N/A N/A SW15G23   30.32R
SUNLIGHT       RAIN      57  52  82 CALM      30.59F
WILKERSON PASS LGT RAIN  59  36  41 W18G25    30.62R
$$

COZ069>075-250100-
...SAN LUIS VALLEY/SANGRE DE CRISTO MOUNTAINS...

CITY           SKY/WX    TMP DP  RH WIND       PRES   REMARKS
ALAMOSA        MOSUNNY   86  43  22 SW20      30.25S
LA VETA PASS   SUNNY     73  41  31 SW10G21   30.49S
SAGUACHE       TSTM      63  55  77 NE12G18   30.39R
$$

COZ035-036-038>040-250100-
...NORTHERN COLORADO FRONT RANGE...

CITY           SKY/WX    TMP DP  RH WIND       PRES   REMARKS
DENVER INTL AP PTSUNNY   87  46  24 NE16      30.04S
DMNS CITY PARK   N/A     86  50  28 NE9G17    30.04R
AURORA         PTSUNNY   84  49  29 NE16      30.07R
FRONT RANGE AP NOT AVBL
ERIE MUNI ARPT PTSUNNY   89  47  23 E8        30.01S
BOULDER MUN AP PTSUNNY   88  52  29 CALM      30.03R
CENTENNIAL     PTSUNNY   89  42  19 CALM      30.06F
BROOMFIELD     PTSUNNY   90  50  25 NE12      30.07R
FORT COLLINS   MOSUNNY   90  54  29 NE7       29.98F
LONGMONT       MOSUNNY   90  51  26 NW3       30.03S
$$

COZ041-046-047-076>085-087-088-250100-
...PIKES PEAK/PALMER DIVIDE AND SOUTHERN FOOTHILLS...

CITY           SKY/WX    TMP DP  RH WIND       PRES   REMARKS
COLO. SPRINGS  PTSUNNY   88  42  20 E9        30.08S THUNDER
A. F. ACADEMY  PTSUNNY   81  52  36 NE7       30.13R THUNDER
ELLICOTT       PTSUNNY   90  39  16 S15       30.07F THUNDER
FALCON         PTSUNNY   80  45  29 NE8       30.17R
FORT CARSON    CLOUDY    89  46  22 S10       30.03F
LIMON          CLOUDY    87  46  24 S10G21    30.02S
MONUMENT HILL  PTSUNNY   77  45  31 E8        30.18S
TRINIDAD       MOSUNNY   93  39  15 S28G33    30.03F
$$

COZ042>045-048>051-090-091-250100-
...NORTHEAST COLORADO...

CITY           SKY/WX    TMP DP  RH WIND       PRES   REMARKS
GREELEY ARPT   MOSUNNY   86  57  37 NE5       29.99F
AKRON          CLOUDY    84  49  29 N15G28    29.99R
BURLINGTON     PTSUNNY   93  40  15 S9        29.92S
WRAY             N/A     92  46  20 NW10G22   29.88R
STERLING       CLOUDY    79  59  50 NE20      29.91F
HOLYOKE        CLOUDY    79  66  65 E8        29.94F
FORT MORGAN    CLOUDY    91  44  19 N10       29.97F
$$

COZ086-089-092>099-250100-
...SOUTHEAST COLORADO...

CITY           SKY/WX    TMP DP  RH WIND       PRES   REMARKS
PUEBLO         MOSUNNY   99  38  12 SE10      29.92F
LA JUNTA       SUNNY    100  39  12 S9        29.91F
LAMAR          SUNNY    101  43  13 S17G31    29.86F
SPRINGFIELD      N/A     93  43  17 S23G32    29.98F
$$



USA.gov is the U.S. government's official web portal to all federal, state and local government web resources and services.